PSLV R/B

Satellite information

Favourite Embed

Satellite Type and Status

ROCKET BODYIN ORBIT

Key statistics

Satellite PSLV R/B at a glance.

Uptime

3712

Days in orbit

Revolutions

≈ 14.9

Per day

Orbit

SSO

Sun Synchronous Orbit

Inclination

98.1

Latest

Satellite identification and parameters

Extended collection of information and parameters for PSLV R/B.

Object identification

Identified? True

Debris? False

Object name: PSLV R/B

International designator: 2015-032F

Object number (NORAD): 40720

Object ID (CCSDS): 40720

Country: INDIA (IND)

Current information (Y/N): Y

RCS size: LARGE

Orbital parameters

Period: 96.926 minutes

Inclination: 98.1493 deg

SMA: 6989.643 km

Apoapsis: 613.75 km

Periapsis: 609.267 km

RAAN: 207.1676 deg

Eccentricy: 0.0003207

Argument of periapsis: 305.9474 deg

Mean anomaly: 54.1442 deg

Mean motion: 14.85662778 rev/day

Mean motion (dot): 0.00002119 rev/day2

B* drag term: 0.00025112688 1/REarth

Two-line elements (TLE)

Creation date: Sept. 7, 2025, 3:09 a.m.

Reference frame: TEME

Reference center: EARTH

Epoch: Sept. 6, 2025, 8:37 p.m. UTC

TLE line 0: 0 PSLV R/B

TLE line 1: 1 40720U 15032F 25249.85928609 .00002119 00000-0 25113-3 0 9991

TLE line 2: 2 40720 98.1493 207.1676 0003207 305.9474 54.1442 14.85662778549217

Live tracking on map

Real-time ground track for satellite PSLV R/B.

In-orbit conjunctions

A list of the most updated potential collisions computed for object PSLV R/B.

Target Orbit TCA Probability of collision Miss distance Type
CZ-6A DEB LEO 2025-07-23 07:24:49 0.0002321783 791.0 (m) DEBRIS
FENGYUN 1C DEB SSO 2025-07-21 16:48:59 0.02832847 16.0 (m) DEBRIS
SL-14 R/B LEO 2024-11-29 23:43:11 0.0002039179 1000.0 (m) ROCKET BODY
FENGYUN 1C DEB SSO 2024-10-16 23:46:30 0.0001142743 967.0 (m) DEBRIS
COSMOS 2251 DEB LEO 2024-06-16 15:08:26 0.0002722872 493.0 (m) DEBRIS

Associated space launch

The Polar Satellite Launch Vehicle (PSLV), in its thirtieth flight (PSLV-C28), will launch three identical DMC3 optical earth observation satellites. A, B and C. It will also carry two auxiliary satellites from UK. CBNT-1, a technology demonstrator earth observation micro satellite, and De-OrbitSail, a technology demonstrator nano satellite.

PSLV R/B was lifted into orbit during the mission ‘PSLV XL | DMC-3A, DMC-3B, DMC-3C, CBNT-1 & DeOrbitSAIL’, on board a PSLV-XL space rocket.

The launch took place on July 10, 2015, 4:28 p.m. from Satish Dhawan Space Centre First Launch Pad.

For more information about the launch, click the button.

Launch to space PSLV XL | DMC-3A, DMC-3B, DMC-3C, CBNT-1 & DeOrbitSAIL
PSLV XL | DMC-3A, DMC-3B, DMC-3C, CBNT-1 & DeOrbitSAIL

Agency: N/A

Status: Launch Successful

Launch date: July 10, 2015, 4:28 p.m. UTC

Rocket: PSLV-XL

Launch pad: Satish Dhawan Space Centre First Launch Pad

Location: Satish Dhawan Space Centre, India

...

Latest news about this satellite

There are no fresh news available about this satellite. Check back as we update our databases every day.


Newsletter sign-up

Weekly statistics, charts and insights to help you stay on top of the space industry.